EST,Max TemperatureF,Mean TemperatureF,Min TemperatureF,Max Dew PointF,MeanDew PointF,Min DewpointF,Max Humidity, Mean Humidity, Min Humidity, Max Sea Level PressureIn, Mean Sea Level PressureIn, Min Sea Level PressureIn, Max VisibilityMiles, Mean VisibilityMiles, Min VisibilityMiles, Max Wind SpeedMPH, Mean Wind SpeedMPH, Max Gust SpeedMPH,PrecipitationIn, CloudCover, Events, WindDirDegrees
2014-1-1,32,26,21,20,13,8,64,54,47,30.43,30.36,30.28,10,10,10,10,5,,0.00,3,,268
2014-1-2,30,24,19,26,23,15,93,87,61,30.27,29.90,29.66,10,3,0,14,8,28,0.00,8,Fog-Snow,26
2014-1-3,17,12,6,14,5,-6,88,71,51,30.47,30.02,29.60,10,3,0,28,18,40,0.00,2,Fog,341
2014-1-4,30,14,-2,22,6,-9,95,69,51,30.56,30.44,30.33,10,10,3,14,4,22,0.00,0,,243
2014-1-5,50,30,10,49,33,7,97,90,80,30.35,30.17,29.83,10,6,0,15,4,23,0.02,7,Fog-Rain,133
2014-1-6,55,42,28,56,45,12,100,89,51,29.80,29.55,29.43,10,6,0,24,16,37,0.19,8,Fog-Rain,220
2014-1-7,23,16,8,6,-8,-12,50,43,35,30.38,30.11,29.69,10,10,10,25,18,38,0.00,0,,273
2014-1-8,23,15,7,4,-1,-6,61,50,39,30.56,30.49,30.40,10,10,10,12,8,16,0.00,1,,262
2014-1-9,30,22,14,10,8,4,80,55,38,30.68,30.61,30.50,10,9,5,9,5,16,0.00,0,,302
2014-1-10,34,24,15,31,20,10,89,78,69,30.60,30.52,30.42,10,8,3,6,1,,0.04,7,Rain,12
2014-1-11,,,,,,,,,,,,,,,,,,,,,,
2014-1-12,41,39,35,26,26,25,70,62,53,30.08,30.03,29.98,10,10,10,14,10,23,0.00,0,,280
2014-1-13,51,40,28,44,35,25,92,75,61,30.18,30.08,29.94,10,10,7,16,7,30,0.00,0,,201
2014-1-14,48,46,39,48,45,38,100,93,80,29.93,29.78,29.66,10,6,2,14,9,22,0.75,6,Rain,233
2014-1-15,44,36,28,43,37,28,100,97,87,30.04,29.96,29.85,9,2,0,10,4,,0.00,5,Fog,200
2014-1-16,39,38,36,40,37,31,100,92,79,29.95,29.90,29.84,10,5,0,8,5,,0.00,7,Fog,330
2014-1-17,43,34,25,35,30,23,96,80,55,30.02,29.96,29.91,10,8,4,16,4,,0.00,1,,198
2014-1-18,46,37,28,40,31,20,97,77,64,29.89,29.73,29.62,10,9,4,18,7,28,0.02,6,Rain,274
2014-1-19,37,32,27,26,20,17,75,63,52,29.83,29.75,29.68,10,10,10,18,10,25,0.00,2,,245
2014-1-20,46,41,33,28,25,20,67,55,42,29.89,29.69,29.58,10,10,10,17,10,29,0.00,3,,266
2014-1-21,30,22,15,20,13,10,88,77,53,30.02,29.91,29.78,10,3,0,16,8,28,0.00,6,Fog-Snow,7
2014-1-22,14,12,9,10,3,-3,84,68,51,29.98,29.79,29.73,10,6,1,22,16,32,0.00,4,Snow,341
2014-1-23,19,11,3,2,-1,-6,69,55,45,30.28,30.14,29.98,10,10,10,14,8,22,0.00,2,,297
2014-1-24,18,13,9,3,-1,-3,61,52,41,30.37,30.28,30.13,10,10,10,15,9,21,0.00,1,,274
2014-1-25,36,28,21,25,19,6,89,71,51,30.09,29.62,29.46,10,6,0,23,15,36,0.00,6,Fog-Snow,225
2014-1-26,36,26,17,26,9,-1,72,57,40,29.91,29.80,29.49,10,10,9,18,11,25,0.00,5,Snow,258
2014-1-27,44,34,21,36,23,-1,79,61,33,30.07,29.79,29.64,10,10,10,18,11,29,0.00,6,,252
2014-1-28,19,16,12,6,-3,-6,65,41,36,30.38,30.28,30.09,10,10,4,20,11,28,0.00,3,Snow,307
2014-1-29,23,19,12,12,6,-2,88,67,34,30.31,30.18,30.10,10,5,2,13,7,,0.00,5,Snow,307
2014-1-30,25,16,7,12,4,-3,84,60,42,30.48,30.37,30.21,10,10,7,9,4,,0.00,0,,236
2014-1-31,42,28,14,22,18,10,88,60,34,30.26,30.16,30.11,10,10,8,13,4,,0.00,2,,266